Miscellaneous Local Product
Issued by NWS Hastings, NE

Home | Current Version | Previous Version | Graphics & Text | Print | Product List | Glossary On
Versions: 1 2 3 4 5 6 7 8 9 10 11 12 13 14 15 16 17 18 19 20 21 22 23 24 25 26 27 28 29 30 31 32 33 34 35 36 37 38 39 40 41 42 43 44 45 46 47 48 49 50
000
AXUS43 KGID 222102
MISGRI

GID CWA HOURLY WEATHER ROUNDUP
NATIONAL WEATHER SERVICE HASTINGS NE
400 PM CDT FRI MAY 22 2015

NOTE: "FAIR" INDICATES FEW OR NO CLOUDS BELOW 12,000 FEET WITH NO
SIGNIFICANT WEATHER AND/OR OBSTRUCTIONS TO VISIBILITY.

...SOUTH CENTRAL NEBRASKA...

CITY           SKY/WX    TMP DP  RH WIND       PRES   REMARKS
GRAND ISLAND   CLOUDY    58  45  62 SE9       30.19F
HASTINGS       CLOUDY    57  45  64 SE13      30.17F
KEARNEY        CLOUDY    52  46  82 E10       30.19F
ORD            CLOUDY    53  44  71 SE8       30.20F
YORK           CLOUDY    59  46  63 E7        30.21F
AURORA         CLOUDY    60  44  55 SE13      30.19F
LEXINGTON      LGT RAIN  50  46  87 E13G18    30.16F
HOLDREGE       LGT RAIN  50  47  90 E14       30.16F
HEBRON         CLOUDY    60  43  53 SE10      30.20F

...NEBRASKA PANHANDLE...

CITY           SKY/WX    TMP DP  RH WIND       PRES   REMARKS
CHADRON        CLOUDY    52  42  69 SE21G30   30.08F
ALLIANCE       CLOUDY    50  44  80 SE22      30.07F
SCOTTSBLUFF    CLOUDY    50  45  83 SE18G25   30.06S
SIDNEY         CLOUDY    49  47  93 E16G23    30.05F FOG

...WESTERN AND NORTH CENTRAL NEBRASKA...

CITY           SKY/WX    TMP DP  RH WIND       PRES   REMARKS
VALENTINE      CLOUDY    54  42  64 S23G30    30.17S
AINSWORTH      LGT RAIN  49  45  85 S14       30.20S
ONEILL         CLOUDY    57  41  55 S21G32    30.23R
BROKEN BOW     LGT RAIN  51  44  77 SE14      30.17F
IMPERIAL       CLOUDY    49  47  93 SE21      30.07F
NORTH PLATTE   LGT RAIN  47  44  90 SE17G25   30.14F
MCCOOK         LGT RAIN  51  49  92 E16G22    30.10F FOG

...EASTERN NEBRASKA...

CITY           SKY/WX    TMP DP  RH WIND       PRES   REMARKS
NORFOLK        RAIN      54  46  74 S16G30    30.24R
SO SIOUX CITY  CLOUDY    72  38  29 SW14      30.20S
TEKAMAH        CLOUDY    67  44  43 S25       30.23R
COLUMBUS       CLOUDY    61  45  55 NE7       30.24F
ALBION         LGT RAIN  53  44  70 SE9       30.25S
OMAHA EPPLEY   LGT RAIN  61  48  62 SW9       30.25R
OFFUTT AFB     CLOUDY    62  51  65 NE7       30.22F
MILLARD        CLOUDY    62  48  60 E3        30.23F
LINCOLN        CLOUDY    64  45  49 SE10      30.21F
NEBRASKA CITY  CLOUDY    65  42  42 CALM      30.23F
BEATRICE       CLOUDY    64  44  49 SE10G22   30.21F
FALLS CITY     CLOUDY    66  49  54 SE6       30.22F

...NORTHERN KANSAS...

CITY           SKY/WX    TMP DP  RH WIND       PRES   REMARKS
GOODLAND       CLOUDY    54  51  90 SE21G29   30.02F
HILL CITY      CLOUDY    54  49  83 SE13      30.11F
NORTON         LGT RAIN  50  46  87 E14       30.11F
PHILLIPSBURG   CLOUDY    55  52  88 SE10      30.14F FOG
SMITH CENTER   CLOUDY    52  50  93 E15       30.17F
HAYS           CLOUDY    57  46  67 SE10      30.12F
RUSSELL        CLOUDY    56  51  84 SE12      30.12F
CONCORDIA      CLOUDY    58  49  72 SE12      30.17F
SALINA         CLOUDY    58  55  90 SE8       30.18F FOG
TOPEKA         CLOUDY    63  47  55 SE10      30.22F



USA.gov is the U.S. government's official web portal to all federal, state and local government web resources and services.